STARLINK-3870, 52451

Orbit data source: Space-Track

STARLINK-3870, 52451 is a payload satellite owned by SpaceX/Seattle (US) in LEO that was launched on Fri, 06 May 2022 UTC via an FALCON 9 launch vehicle from the Air Force Eastern Test Range (AFETR). Payload-class satellites include a variety of spacecraft equipped with specific instruments for various scientific and technological missions. These include communications satellites like Starlink; space stations such as the ISS; scientific satellites like the Hubble; Earth observation satellites from companies like Planet Labs, Umbra, and HawkEye 360; GPS; miniature CubeSats for education and research; and military/defense satellites.

Loading next visibility...
Identifier
52451, 2022-049A
Orbit
LEO
Country
Flag of USUS
Related business
Manufacturer
SpaceX/Seattle
Mission
Operational Commercial Communications
Bus & Motor
STARLINK, Unknown motor
Mass
297 kg wet, ~220 kg dry
Launch date (UTC)
2022-05-06 (4 years ago)
Launch vehicle
FALCON 9
Launch site
Air Force Eastern Test Range (AFETR)
Object type
Payload
Rocket body
Debris
Shape & HBR
Box + 1 Pan, 10.1 m
Radar Cross Section
13.562 m², Large (>1 m²)

Expand to show TLE details & history
Last TLE update: 17 hours ago

TLE from 17 hours ago
0 STARLINK-3870
1 52451U 22049A   25346.73872003 -.00001777  00000-0 -93562-4 0  9997
2 52451  53.2163  99.4597 0001011  88.4163 271.6945 15.08842523198982
Epoch: 2025-12-12T17:43Z
TLE epoch observation values (Epoch: 2025-12-12T17:43:45.410Z)
Latitude
-0.00002°
Longitude
111.84445°
Altitude
540.612 km
Speed
7.593 km/s
True Right ascension
06h 37m 50s
True Declination
0° 00' 00"
Sunlit
Object was in full shadow at epoch
Visualization orbit readout
Latitude
Unknown
Longitude
Unknown
Altitude
Unknown
Speed
Unknown
Apparent Right ascension
Unknown
Apparent Declination
Unknown
Sunlit
N/A
Visualization observer readout
Local Sidereal Time
09:16:23
Azimuth
Unknown
Elevation
Unknown
Doppler factor
Unknown
Orbital elements
Apogee altitude
540.68 km
Perigee altitude
539.281 km
Semi-major axis
6,918.118 km
Eccentricity
0.0001
Inclination
53.2163°
RAAN
99.4597°
Arg. of periapsis
88.4163°
True anomaly
271.68292°
Mean anomaly
271.6945°
Eccentric anomaly
271.68871°
Mean motion
3.77191 °/min
Orbital period
95.44 mins
BSTAR
-0.000093562
Loading maneuver chart data...
Computing Atmospheric mass density...
Loading historical data...
Loading historical data...
Loading historical data...
Loading historical data...
Loading historical data...
Loading historical data...
Loading historical data...

Documentation

Showing up to 5 results
|